EHI
0 0 0 0 0 0 0 0 0 0 0 0 0 0 0 0 0 0 0 0 0 0 0 0 0 0 0 0 0 0 0 0 0 0 0 0 1 1 0 0 0 0 0 0 0 0 0 0 0
0 0 0 0 0 0 0 0 0 0 0 0 0 0 0 0 0 0 0 0 0 0 0 0 0 0 0 0 0 0 0 0 0 0 0 0 1 1 0 0 0 0 0 0 0 0 0 0 0
0 0 0 0 0 0 0 0 0 0 0 0 0 0 0 0 0 0 0 0 0 0 0 0 0 0 0 0 0 0 0 0 0 0 0 0 1 1 0 0 0 0 0 0 0 0 0 0 0
0 0 0 0 0 0 0 0 0 0 0 0 0 0 0 0 0 0 0 0 0 0 0 0 0 0 0 0 0 0 0 0 0 0 0 0 0 0 0 0 0 0 0 0 0 0 0 0 0
0 0 0 0 0 0 0 0 0 0 0 0 0 0 0 0 0 0 0 0 0 0 0 0 0 0 0 0 0 0 0 0 0 0 0 0 0 0 0 0 0 0 0 0 0 1 1 1 0
0 0 0 0 0 0 0 0 0 0 0 0 0 0 0 0 0 0 0 0 0 0 0 0 0 0 0 0 0 0 0 0 0 0 0 0 0 0 0 0 0 0 0 0 0 1 2 1 1
0 0 0 0 0 0 0 0 0 0 0 0 0 0 0 0 0 0 0 0 0 0 0 0 0 0 0 0 0 0 0 0 0 0 0 0 0 0 0 0 0 0 0 0 0 1 1 1 0
0 0 0 0 0 0 0 0 0 0 0 0 0 0 0 0 0 0 0 0 0 0 0 0 0 0 0 0 0 0 0 0 0 0 0 0 0 0 0 0 0 0 0 0 0 0 0 0 0
0 0 0 0 0 0 0 0 0 0 0 0 0 0 0 0 0 0 0 0 0 0 0 0 0 0 0 0 0 0 0 0 0 0 0 0 0 0 0 0 0 0 0 0 0 0 0 0 0
0 0 0 0 0 0 0 0 0 0 0 0 0 0 0 0 0 0 0 0 0 0 0 0 0 0 0 0 0 0 0 0 0 0 0 0 0 0 0 0 0 0 0 0 0 0 0 0 0
0 0 0 0 0 0 0 0 0 0 0 0 0 0 0 0 0 0 0 0 0 0 0 0 0 0 0 0 0 0 0 0 0 0 0 0 0 0 0 0 0 0 0 0 0 0 0 0 0
0 0 0 0 0 0 0 0 0 0 0 0 0 0 0 0 0 0 0 0 0 0 0 0 0 0 0 0 0 0 0 0 0 0 0 0 0 0 0 0 0 0 0 0 0 0 0 0 0
0 0 0 0 0 0 0 0 0 0 0 0 0 0 0 0 0 0 0 0 0 0 0 0 0 0 0 0 0 0 0 0 0 0 0 0 0 0 0 0 0 0 0 0 0 0 0 0 0
0 0 0 0 0 0 0 0 0 0 0 0 0 0 0 0 0 0 0 0 0 0 0 0 0 0 0 0 0 0 0 0 0 0 0 0 0 0 0 0 0 0 0 0 0 0 0 0 0
0 0 0 0 0 0 0 0 0 0 0 0 0 0 0 0 0 0 0 0 0 0 0 0 0 0 0 0 0 0 0 0 0 0 0 0 0 0 0 0 0 0 0 0 0 0 0 0 0
0 0 0 0 0 0 0 0 0 0 0 0 0 0 0 0 0 0 0 0 0 0 0 0 0 0 0 0 0 0 0 0 0 0 0 0 0 0 0 0 0 0 0 0 0 0 0 0 0
0 0 0 0 0 0 0 0 0 0 0 0 0 0 0 0 0 0 0 0 0 0 0 0 0 0 0 0 0 0 0 0 0 0 0 0 0 0 0 0 0 0 0 0 0 0 0 0 0
0 0 0 0 0 0 0 0 0 0 0 0 0 0 0 0 0 0 0 0 0 0 0 0 0 0 0 0 0 0 0 0 0 0 0 0 0 0 0 0 0 0 0 0 0 0 0 0 0
0 0 0 0 0 0 0 0 0 0 0 0 0 0 0 0 0 0 0 0 0 0 0 0 0 0 0 0 0 0 0 0 0 0 0 0 0 0 0 0 0 0 0 0 0 0 0 0 0
0 0 0 0 0 0 0 0 0 0 0 0 0 0 0 0 0 0 0 0 0 0 0 0 0 0 0 0 0 0 0 0 0 0 0 0 0 0 0 0 0 0 0 0 0 0 0 0 0
0 0 0 0 0 0 0 0 0 0 0 0 0 0 0 0 0 0 0 0 0 0 0 0 0 0 0 0 0 0 0 0 0 0 0 0 0 0 0 0 0 0 0 0 0 0 0 0 0
0 0 0 0 0 0 0 0 0 0 0 0 0 0 0 0 0 0 0 0 0 0 0 0 0 0 0 0 0 0 0 0 0 0 0 0 0 0 0 0 0 0 0 0 0 0 0 0 0
0 0 0 0 0 0 0 0 0 0 0 0 0 0 0 0 0 0 0 0 0 0 0 0 0 0 0 0 0 0 0 0 0 0 0 0 0 0 0 0 0 0 0 0 0 0 0 0 0
0 0 0 0 0 0 0 0 0 0 0 0 0 0 0 0 0 0 0 0 0 0 0 0 0 0 0 0 0 0 0 0 0 0 0 0 0 0 0 0 0 0 0 0 0 0 0 0 0
0 0 0 0 0 0 0 0 0 0 0 0 0 0 0 0 0 0 0 0 0 0 0 0 0 0 0 0 0 0 0 0 0 0 0 0 0 0 0 0 0 0 0 0 0 0 0 0 0
0 0 0 0 0 0 0 0 0 0 0 0 0 0 0 0 0 0 0 0 0 0 0 0 0 0 0 0 0 0 0 0 0 0 0 0 0 0 0 0 0 0 0 0 0 0 0 0 0
0 0 0 0 0 0 0 0 0 0 0 0 0 0 0 0 0 0 0 0 0 0 0 0 0 0 0 0 0 0 0 0 0 0 0 0 0 0 0 0 0 0 0 0 0 0 0 0 0
0 0 0 0 0 0 0 0 0 0 0 0 0 0 0 0 0 0 0 0 0 0 0 0 0 0 0 0 0 0 0 0 0 0 0 0 0 0 0 0 0 0 0 0 0 0 0 0 0
0 0 0 0 0 0 0 0 0 0 0 0 0 0 0 0 0 0 0 0 0 0 0 0 0 0 0 0 0 0 0 0 0 0 0 0 0 0 0 0 0 0 0 0 0 0 0 0 0
0 0 0 0 0 0 0 0 0 0 0 0 0 0 0 0 0 0 0 0 0 0 0 0 0 0 0 0 0 0 0 0 0 0 0 0 0 0 0 0 0 0 0 0 0 0 0 0 0
Wind_Speed
15 13 5 1 1 9 16 15 15 10 10 18 17 15 15 13 11 8 6 12 14 9 13 19 26 27 28 28 27 27 26 26 26 25 23 21 19 17 15 14 14 13 12 12 12 11 11 11 10
10 10 4 1 7 11 13 13 17 19 13 12 15 14 13 13 8 4 7 12 12 9 10 17 24 26 27 28 28 28 27 27 26 26 25 24 22 20 19 17 16 15 14 13 13 13 12 11 10
10 7 2 6 12 11 11 10 11 19 20 12 10 11 10 8 6 5 8 11 10 9 9 16 26 25 26 27 27 27 27 27 27 27 26 25 24 23 22 20 18 16 15 14 13 13 13 12 11
4 2 5 13 18 16 13 12 8 12 14 15 12 11 8 5 2 4 7 9 11 12 12 16 26 26 25 26 26 26 27 27 26 27 27 26 25 24 23 22 21 19 18 16 14 14 13 12 11
3 4 11 12 13 11 13 15 18 18 11 13 13 10 7 3 1 3 7 10 12 12 12 15 26 27 27 25 26 26 26 26 26 26 27 26 25 24 23 23 23 22 21 19 17 15 13 12 12
2 5 10 12 14 12 12 15 14 16 13 10 9 10 6 5 4 5 9 10 11 13 12 14 24 27 28 27 26 26 24 25 25 25 27 27 25 24 24 23 24 23 22 21 20 17 15 13 12
7 9 11 13 11 8 8 9 13 11 11 11 8 9 6 8 7 7 9 10 10 12 13 14 15 19 25 27 27 27 25 25 25 24 26 27 26 25 25 24 24 24 24 23 21 20 17 15 14
2 7 11 9 8 7 7 8 9 11 9 9 12 9 6 7 8 9 8 9 10 12 13 15 15 15 16 16 23 26 25 25 26 25 26 26 24 24 24 24 25 25 25 24 22 22 20 18 16
6 9 8 6 7 8 9 8 8 10 13 14 13 12 9 8 8 8 9 10 12 15 14 14 15 15 15 14 19 19 21 22 23 19 24 20 12 12 14 22 26 25 26 24 24 25 23 19 14
9 6 8 10 10 11 12 10 8 10 13 13 10 11 10 9 9 10 12 13 15 16 15 14 14 15 15 14 12 10 11 11 12 12 13 10 10 11 16 21 24 25 25 23 24 26 22 15 9
8 8 8 12 14 14 13 11 10 10 9 10 9 9 8 10 10 12 12 12 12 12 13 14 14 13 14 12 11 8 8 8 10 12 12 10 9 9 10 9 12 13 16 11 16 16 12 11 9
9 12 11 10 10 11 9 8 10 12 8 8 8 8 9 10 11 12 12 11 11 11 13 14 14 12 12 11 9 9 8 8 9 11 12 10 8 9 10 9 10 9 8 9 10 10 13 13 14
11 10 14 15 16 16 16 12 10 10 8 7 8 9 9 10 10 10 11 12 12 13 14 14 13 13 12 10 9 10 9 9 10 9 9 10 8 9 10 10 10 10 8 10 11 11 12 13 13
13 15 13 12 10 9 12 9 6 6 6 6 7 7 8 8 10 10 11 12 13 12 13 13 13 14 14 12 10 9 8 8 8 8 11 11 9 9 9 10 10 10 9 10 10 12 12 11 11
16 12 10 7 8 9 8 8 6 6 5 5 6 7 7 8 9 9 9 10 10 11 12 14 14 15 15 13 12 10 9 10 8 8 9 11 12 10 10 9 9 9 9 11 10 11 9 10 11
8 8 7 7 8 7 4 4 8 4 4 4 4 6 6 7 8 8 9 9 10 11 12 13 14 14 14 13 11 9 9 10 9 8 8 11 13 13 11 10 10 10 10 9 10 9 10 10 10
7 6 8 6 2 3 6 5 7 4 3 3 4 5 5 7 8 8 8 9 10 11 11 12 12 13 13 12 10 10 9 9 9 8 8 10 12 13 11 10 10 13 10 10 11 10 10 11 11
5 5 6 7 3 4 4 7 7 4 3 2 4 4 5 6 7 7 8 9 10 10 10 11 12 12 12 9 9 8 9 9 8 7 9 12 10 13 12 10 12 13 11 10 11 12 11 10 11
5 5 5 5 2 2 3 7 8 6 4 1 3 4 4 5 6 7 7 8 9 10 11 11 11 12 10 9 10 10 11 10 9 8 12 12 12 13 11 10 11 12 11 12 13 13 13 11 10
3 4 2 5 4 2 2 6 9 7 4 3 3 3 4 5 7 8 8 8 8 9 10 10 10 11 10 9 8 8 10 9 9 9 10 11 12 13 12 11 10 11 11 13 13 13 10 10 9
2 4 4 2 4 3 3 6 11 9 5 5 4 2 5 7 7 7 7 8 7 8 9 10 10 11 10 10 8 9 7 7 7 9 7 10 12 12 12 11 10 10 10 10 13 13 13 11 10
3 5 5 3 2 4 6 3 8 10 7 7 3 3 6 6 6 6 7 7 7 7 7 8 9 10 9 9 9 11 10 10 11 9 9 11 12 12 12 12 11 10 10 12 12 12 12 12 9
4 3 4 4 3 4 5 4 4 7 7 6 4 6 6 5 6 7 7 7 6 6 6 7 8 8 9 9 9 9 9 8 9 10 11 10 9 10 12 13 11 11 10 12 13 14 13 10 10
5 6 5 3 3 5 4 6 3 3 5 6 6 6 6 6 7 7 6 6 6 6 6 7 8 8 8 9 9 9 10 11 12 12 11 10 9 8 10 14 11 11 11 12 13 14 14 11 11
4 6 2 2 4 3 2 1 5 6 10 7 4 4 6 7 6 6 7 6 6 7 7 7 8 9 9 9 9 9 10 10 10 11 11 11 10 9 10 13 12 11 12 13 14 14 13 13 12
5 4 4 4 5 6 3 3 6 8 7 3 2 5 6 6 6 6 7 6 6 7 7 7 8 9 9 9 9 9 9 7 7 10 10 10 9 10 11 12 13 13 15 15 14 13 13 12 11
6 5 1 3 6 6 1 7 4 6 5 2 4 5 6 6 7 7 6 6 6 6 7 7 8 9 9 9 10 9 9 9 9 10 9 8 9 11 13 13 13 14 15 15 15 12 14 14 11
3 4 4 3 5 7 8 3 5 6 3 3 4 5 6 6 6 6 6 6 6 6 6 7 7 8 9 9 9 12 10 9 9 9 10 11 12 12 13 13 14 15 15 15 14 13 14 15 11
1 3 2 3 4 3 7 1 5 7 3 2 4 6 6 6 6 6 6 6 6 6 7 7 7 8 8 9 9 10 9 9 10 9 11 11 11 12 13 14 15 16 15 15 15 15 17 16 12
2 3 3 3 5 3 6 1 6 6 3 2 4 5 6 6 6 6 6 7 7 7 7 8 8 8 9 9 9 10 10 10 10 11 11 13 13 11 13 13 15 16 16 16 15 16 18 15 12
Wind_Direction
307 296 274 254 67 70 64 50 43 63 80 59 57 68 73 55 44 68 286 302 323 339 7 6 18 23 24 24 23 22 21 20 18 14 11 5 358 351 345 338 336 333 330 327 321 314 306 297 292
300 298 301 281 85 80 66 56 51 42 91 87 57 56 65 64 47 32 314 319 330 352 19 13 19 23 24 24 23 22 21 20 19 15 11 8 6 2 355 347 341 337 331 324 317 312 305 295 284
276 271 288 49 58 59 64 42 79 61 48 66 74 49 49 42 26 348 316 320 343 6 20 17 18 21 23 22 21 20 19 18 18 16 13 9 7 6 3 358 351 344 336 325 315 308 304 298 287
294 261 72 74 73 48 45 27 24 88 58 52 79 71 70 39 347 316 330 354 10 16 14 17 18 16 18 20 18 18 17 15 15 14 11 9 7 6 5 4 0 353 345 334 321 310 302 298 293
231 77 79 84 78 63 41 46 48 57 60 62 77 88 84 50 62 19 19 20 20 16 13 13 16 14 11 14 14 12 13 11 11 12 9 6 4 4 4 4 2 357 350 343 331 317 306 299 295
259 92 95 95 102 94 60 38 55 61 55 45 91 103 77 46 34 45 39 31 25 16 14 12 13 11 8 6 9 6 7 8 6 8 7 3 1 1 1 2 359 355 351 346 338 327 313 303 297
65 80 100 111 107 82 69 62 45 55 44 13 19 92 82 36 25 39 46 32 27 20 15 13 11 8 5 0 3 1 1 5 1 4 5 1 358 357 357 358 354 351 349 346 341 335 323 307 296
39 99 100 98 93 94 76 69 55 45 50 27 28 67 64 32 31 29 38 34 24 23 17 15 9 7 2 353 359 357 356 2 358 360 1 360 356 354 352 354 348 349 347 344 343 341 332 317 299
52 71 52 42 99 114 125 106 86 81 79 68 64 69 65 42 36 31 27 25 21 20 16 14 7 5 0 353 355 353 354 359 356 355 357 357 351 349 347 348 344 347 344 344 346 344 336 328 308
39 68 53 39 80 98 91 91 108 91 75 77 76 68 60 50 36 31 27 21 18 14 11 12 5 3 0 354 352 347 350 354 352 350 351 352 351 346 349 343 341 344 340 346 346 341 339 336 323
55 87 91 69 80 89 86 69 65 104 68 63 69 66 52 49 40 31 28 23 19 12 10 9 4 2 1 353 350 347 348 351 348 346 349 352 351 345 346 340 336 337 338 346 342 340 335 330 323
79 72 92 98 93 93 88 81 62 67 92 84 73 64 56 44 42 33 24 19 16 13 10 8 1 1 358 352 347 347 347 349 345 341 348 353 352 347 344 339 333 333 336 342 339 329 326 328 324
85 85 75 78 79 84 91 91 95 99 105 99 84 67 56 50 41 38 26 19 14 12 10 5 358 2 356 351 349 349 345 346 341 339 345 354 354 345 342 336 333 330 339 341 331 325 328 328 324
108 112 113 111 110 108 106 108 104 116 122 109 90 72 59 54 46 35 27 19 13 11 8 2 359 2 356 353 350 346 344 342 339 338 342 353 354 341 339 332 330 330 340 333 325 326 327 324 324
123 117 121 129 125 144 132 101 108 133 143 121 102 90 75 59 55 40 32 22 12 10 8 4 360 1 355 349 349 348 344 342 337 337 341 353 351 340 339 331 327 331 333 328 326 325 327 327 327
161 152 139 157 163 169 262 151 137 154 142 105 85 78 68 65 57 45 34 27 16 11 9 5 1 357 353 347 348 345 344 341 337 337 343 352 346 342 339 332 326 332 333 328 327 331 334 329 325
201 211 132 151 167 174 236 131 143 163 166 134 88 66 54 52 50 44 35 32 19 14 8 2 359 356 351 347 347 340 342 338 334 336 343 346 343 343 339 328 329 335 332 330 332 334 331 328 324
350 343 117 134 134 230 238 118 141 175 196 140 93 63 51 47 47 44 36 37 24 15 8 0 358 354 350 350 343 338 340 336 331 334 344 343 341 341 336 328 335 334 329 330 330 328 330 326 323
339 353 72 111 118 272 222 149 160 171 198 150 55 29 27 48 44 42 37 37 23 14 6 358 357 352 352 353 345 342 339 335 331 338 343 339 339 338 332 335 334 332 328 327 326 328 325 325 323
343 335 74 131 131 265 217 189 167 173 177 77 10 341 356 37 30 26 26 32 23 15 4 354 356 350 352 350 340 335 329 326 328 336 330 333 337 335 335 335 334 331 327 324 325 325 319 319 330
339 23 357 343 132 244 261 233 175 166 154 154 226 277 29 32 25 16 19 27 21 17 4 353 350 347 348 347 339 335 325 327 333 334 330 335 336 333 331 331 333 329 327 322 322 320 320 318 315
23 35 326 285 222 226 173 272 165 164 177 195 193 61 42 39 25 18 23 22 18 17 2 348 344 344 346 346 341 339 339 336 334 331 329 333 332 330 332 333 333 328 326 322 320 322 315 310 309
337 341 286 276 241 271 192 246 126 151 191 181 105 56 41 36 29 30 27 20 17 15 0 346 342 343 343 345 340 337 333 330 327 328 329 329 327 328 332 333 330 327 324 322 320 317 310 306 302
290 263 232 251 244 263 198 184 150 183 160 106 65 39 30 27 31 31 21 16 16 11 358 345 343 341 342 342 340 338 333 333 331 333 331 329 327 329 331 331 328 325 325 323 320 314 308 303 299
311 323 303 262 225 223 98 219 94 79 75 75 51 27 33 26 29 22 13 11 9 0 352 346 345 340 342 341 340 335 333 331 329 331 329 329 330 331 327 330 326 327 326 325 323 317 312 305 301
323 347 17 318 311 314 214 134 111 107 101 99 56 46 33 27 30 25 15 14 3 354 350 348 345 340 340 340 337 331 331 328 325 326 325 327 327 324 325 329 327 328 327 327 326 320 318 310 309
342 33 24 281 278 276 239 97 134 137 154 110 43 41 32 31 32 23 11 9 359 352 350 347 343 339 338 338 334 328 330 326 324 324 323 325 324 325 329 329 331 329 327 328 328 320 321 317 311
351 338 316 301 324 307 296 113 170 169 134 42 23 37 32 34 31 17 8 4 357 353 348 346 341 337 334 335 333 333 326 324 325 325 326 327 325 325 327 331 331 329 328 329 328 322 323 319 316
211 228 267 274 245 269 294 328 98 118 102 24 28 47 39 38 32 14 6 358 352 352 348 343 339 337 335 333 330 326 324 327 329 328 327 326 323 326 330 332 331 330 329 329 326 324 325 322 320
328 327 335 302 304 282 280 292 125 137 155 79 53 58 53 49 34 16 5 353 351 350 346 344 340 339 335 331 329 326 328 330 330 328 328 325 322 326 330 331 330 329 328 324 323 323 324 320 319